カタログに戻る

THORAD AGENA D DEB

運用中PO
NORAD 42535·DEBRIS·🇺🇸 United States

打ち上げ Apr 8, 1970 から Vandenberg Space Force Base

Loading…

次のパス (今後24時間)

TLE

最新Source: Space-Track

元期: Sep 14, 2026, 03:46 UTC

1 42535U 70025SR  26257.15752228  .00001678  00000-0  15490-2 0  9990
2 42535  99.8558 213.8402 0077272  32.7776 327.8136 13.82816113642301

AllMySatでTHORAD AGENA D DEBをリアルタイム追跡

Download on the App Store